Location: Tafessasset
(32.5899°N, 5.4824°W)
Time: 08:38:10
(UTC+00:00)

Gbstr 26 Del rocket - Pass Details

Date: 18 February 2020
Orbit: 493 x 1264 km, 51.8° (Epoch: 06 April)

Event Time Altitude Azimuth Distance (km) Brightness Sun altitude
Exits shadow 04:43:03 62° 327° (NNW) 1,280 4.3 -30.0°
Maximum altitude 04:44:29 84° 44° (NE) 1,184 4.3 -29.7°
Drops below altitude 10° 04:52:33 10° 133° (SE) 3,223 7.2 -28.0°
Sets 04:55:29 0° 134° (SE) 4,205 7.9 -27.4°
